Printer-friendly version

IAU Minor Planet Center

Minor Planet Center

MPEC 2005-X49 : 2004 QV16

The following Minor Planet Electronic Circular may be linked-to from your own Web pages, but must not otherwise be redistributed electronically.


Read MPEC 2005-X48 Read MPEC 2005-X50


M.P.E.C. 2005-X49                                Issued 2005 Dec. 8, 23:12 UT

     The Minor Planet Electronic Circulars contain information on unusual
         minor planets and routine data on comets.  They are published
   on behalf of Commission 20 of the International Astronomical Union by the
          Minor Planet Center, Smithsonian Astrophysical Observatory,
                          Cambridge, MA 02138, U.S.A.

                  Supported in part by the Brinson Foundation
                  Supported in part by the TABASGO Foundation
             Prepared using the Tamkin Foundation Computer Network

                              MPC@CFA.HARVARD.EDU
          URL http://cfa-www.harvard.edu/iau/mpc.html  ISSN 1523-6714

                                   2004 QV16

                           Revision to MPEC 2004-Q47

Additional Observations:
     K04Q16V 2C2005 11 11.45082805 44 29.192-11 08 25.49         22.7 R EX049568
     K04Q16V 2C2005 11 11.45470705 44 28.998-11 08 28.38         22.2 R EX049568
     K04Q16V 2C2005 11 13.43980905 42 47.124-11 32 57.18         22.3 R EX049568
     K04Q16V 2C2005 11 13.44736005 42 46.707-11 33 02.79         22.2 R EX049568

Observer details:
568 Mauna Kea.  Observers F. Bernardi, A. Boattini.  Measurer F. Bernardi.
    2.24-m University of Hawaii reflector + 2048 CCD.

First and last observations above in comparison with prediction:
Residuals in seconds of arc, reference and Delta-T
051111 568  7.0+  1.3-    051113 568  7.2+  1.3-    MPO 74322   -0.015 day

Orbital elements:
2004 QV16
Epoch 2006 Mar. 6.0 TT = JDT 2453800.5                  MPC
M 257.13284              (2000.0)            P               Q
n   0.41890554     Peri.   49.01196     -0.44202616     +0.88677141
a   1.7689897      Node   196.40244     -0.89698984     -0.43618952
e   0.5739917      Incl.   28.58059     +0.00470009     +0.15288942
P   2.35           H   18.2           G   0.15           U   2
Residuals in seconds of arc
040825 699  0.4-  0.8-    040901 012  0.2+  0.4-    040909 163  0.6-  0.4-
040825 699  0.5+  0.5+    040901 J92  0.1+  0.0     040910 762  0.2-  0.3-
040825 699  0.3-  0.3+    040901 012  0.3+  0.4-    040910 762  0.2-  0.3-
040825 699  0.8-  0.6-    040901 012  0.3+  0.0     040910 762  0.6+  0.2-
040825 J95  1.0-  0.3+    040901 012  0.4-  0.2+    040910 762  0.1-  0.2-
040825 J95  0.3+  0.1+    040901 J92  0.4+  0.3+    040910 762  0.1-  0.2-
040825 J95  0.1-  0.3+    040901 012  0.1+  0.8-    040912 163  1.4-  0.9-
040826 673  1.4+  0.4-    040901 012  0.3-  0.0     040912 163 (2.1-  0.9-)
040826 673  0.6+  0.2-    040901 J92  0.1+  0.0     040912 163  0.5-  1.1+
040826 673  0.9+  0.1+    040901 J92  0.1+  0.0     040912 163  0.8+  0.6-
040826 673  0.7+  0.4+    040901 J92  0.3+  0.1+    040914 163  0.5+  0.9-
040826 854  0.1+  0.2+    040901 J92  0.3+  0.2+    040914 163  1.3+  0.3-
040826 854  0.9+  0.3+    040901 J92  0.3+  0.3+    040914 163  0.3-  0.3-
040826 854  0.6+  0.2+    040901 J92  0.1+  0.1+    040916 448  0.0   0.3-
040826 G90  0.3+  0.1+    040901 J92  0.3+  0.0     040916 448  0.2-  0.3-
040826 G90  0.3+  0.0     040902 G72 (2.6-  2.3+)   040916 448  0.1-  0.3-
040826 G90  0.3+  0.1-    040902 G72 (1.8-  5.4+)   040916 704  0.3+  0.1+
040826 587  0.5+  1.2-    040902 G72 (2.1-  2.2+)   040916 704  1.8+  0.3+
040826 587  0.6-  0.6-    040902 G72 (4.2-  2.0+)   040916 704  0.8+  0.3+
040826 587  0.6-  0.9+    040902 G72 (2.6+  1.8-)   040916 704  0.0   0.1-
040827 240  0.4-  0.6-    040902 G72  1.1+  1.3-    040918 163  0.0   0.8+
040827 240  0.1-  0.1-    040902 G72 (4.3-  2.2+)   040918 163  0.4+  0.5+
040827 240  0.1-  0.2-    040902 G72 (2.4-  3.0+)   040918 163  0.2+  0.2+
040827 240  0.3-  0.1+    040902 G72  0.4+  1.0+    040918 163  1.1+  1.8+
040827 240  0.4-  0.1-    040902 G72  1.7+  1.8-    040918 130  1.0+  1.5-
040827 240  0.5-  0.2-    040903 H06  0.9-  0.7+    040918 130  0.0   0.0
040827 240  0.4-  0.3-    040903 H06  1.4+  0.3+    040918 130  0.4-  0.3-
040827 240  0.2-  0.4-    040903 H06  0.0   0.1+    040918 130  1.1+  0.9+
040827 A13  1.1+  0.9-    040903 H06  0.1-  1.0+    040919 163  0.3-  0.7+
040827 A13  0.6+  0.9-    040903 J92  0.2+  0.0     040919 163  0.4-  0.2+
040827 A13  0.5+  0.3-    040903 J92  0.1+  0.1+    040919 163  0.3-  0.2+
040827 A13  0.2+  0.2-    040903 J92  0.2-  0.2-    040919 163  0.3-  0.3+
040827 A13  0.7+  0.5-    040903 J92  0.1-  0.1-    040919 163  0.3-  0.2+
040827 J95  0.5-  0.0     040903 J92  0.0   0.2+    040920 G72 (1.0+  2.6-)
040827 J95  0.1+  0.1-    040903 J92  0.2+  0.2+    040920 G72  0.6-  1.6+
040827 J95  0.2-  0.3-    040903 J92  0.1+  0.4+    040920 G72  0.5-  0.7+
040828 A13  0.7+  1.1-    040903 J92  0.0   0.3+    040920 G72  1.8+  0.3-
040828 A13  0.4+  1.2-    040903 J92  0.1+  0.1+    040920 G72 (2.4+  2.0-)
040828 A13  0.3-  1.2-    040903 J92  0.2+  0.3+    040920 G72  1.8+  1.3-
040828 A13  1.7+  0.7-    040904 J92  0.2+  0.2+    040920 G72 (1.3-  3.2-)
040828 A13  1.4+  0.4-    040904 J92  0.2-  0.1+    040920 G72 (0.9-  2.2+)
040828 A13  0.8+  0.7-    040904 J92  0.3+  0.3+    040920 G72 (0.9+  2.5-)
040828 A13  1.1+  0.6-    040904 J92  0.0   0.1-    040920 G72  1.1+  0.2+
040829 J95  0.1+  0.1+    040904 H06  0.3-  0.1+    040920 084  0.3-  0.1+
040829 J95  0.3-  0.4+    040904 H06  0.6-  0.0     040923 704  0.1+  0.4-
040829 J95  0.1-  0.0     040904 H06  0.9-  0.9-    040923 704  0.3+  0.5+
040830 J92  0.0   0.1+    040904 H06  1.0-  0.4-    040923 704  0.4+  0.0
040830 J92  0.3+  0.2-    040904 H06  0.3+  0.2-    040923 704  0.2+  0.5-
040830 J92  0.3+  0.3-    040904 H06  0.4-  0.1+    040923 704  0.1+  0.2-
040830 J92  0.0   0.2-    040904 H06  0.9-  0.2+    040927 G72  0.4+  0.5+
040830 J92  0.2+  0.3-    040904 J92  0.1-  0.1+    040927 G72 (1.6+  2.9-)
040830 J92  0.0   0.1-    040904 J92  0.0   0.0     040927 G72  0.5-  0.8-
040830 J92  0.2+  0.1-    040904 J92  0.4+  0.2+    040927 G72  1.2+  1.5-
040830 J92  0.1+  0.1-    040904 J92  0.1-  0.1+    040927 G72 (2.4+  3.9-)
040831 J92  0.2-  0.1-    040904 J92  0.1-  0.1+    040927 G72 (2.3-  2.7+)
040831 J92  0.1+  0.1+    040904 J92  0.1+  0.3+    040927 G72 (1.7+  2.1-)
040831 J92  0.2+  0.1+    040905 163  0.3+  0.5-    040927 G72 (3.1-  2.3-)
040831 J92  0.8+  0.5+    040905 163  0.0   0.1+    040927 G72 (4.3-  5.5-)
040831 J92  0.1-  0.1-    040905 163  0.4+  0.0     041005 644  0.1-  0.3+
040831 J92  0.4+  0.5+    040905 J92  0.5+  0.0     041005 644  0.2-  0.2+
040831 J92  0.0   0.0     040905 J92  0.3+  0.2-    041005 644  0.2-  0.2+
040831 J92  0.2+  0.1+    040905 J92  0.2+  0.2-    041011 941  0.4-  0.0
040831 J92  0.3+  0.4+    040905 J92  0.0   0.1-    041011 941  0.4-  0.0
040831 J92  0.0   0.2+    040905 J92  0.1-  0.3-    041011 941  0.4-  0.2+
040831 J92  0.1-  0.3+    040906 113  0.4+  0.4+    041011 941  0.4-  0.3+
040831 J92  0.4+  0.1+    040906 113  0.1+  0.0     041011 941  0.2-  0.4+
040901 H44  0.5+  0.1+    040906 113  0.1+  0.1-    041109 696  0.1-  0.7+
040901 H44  0.5+  0.0     040906 113  0.1-  0.0     041109 696  0.8-  0.3-
040901 568  0.1-  0.0     040908 H41  0.1+  0.6-    041211 291  0.6+  0.2+
040901 568  0.4-  0.2+    040908 H41  0.5+  0.4-    041211 291  1.1-  1.3+
040901 J92  0.0   0.0     040908 H41  0.3+  0.8-    041211 291  0.1+  1.3+
040901 J92  0.2+  0.1+    040908 H41  0.5+  0.7-    051111 568  0.1-  0.1-
040901 J92  0.4+  0.2+    040908 587  1.2-  0.1-    051111 568  0.0   0.0
040901 J92  0.2+  0.2+    040908 587  0.4+  1.0+    051113 568  0.1+  0.0
040901 J92  0.0   0.1+    040908 587  0.1-  1.1+    051113 568  0.0   0.0
040901 012  0.3+  0.3-    040909 163  0.5-  0.1-
040901 012  0.0   0.5-    040909 163  0.3-  0.3-

Ephemeris:
2004 QV16                a,e,i = 1.77, 0.57, 29                  q = 0.7536
Date    TT    R. A. (2000) Decl.     Delta      r     Elong.  Phase     V
2005 12 06    05 16.94   -15 13.0    1.843    2.687   141.7    13.1    22.4
2005 12 16    05 03.41   -16 00.3    1.835    2.665   140.0    13.7    22.4
2005 12 26    04 50.33   -16 10.5    1.852    2.640   135.0    15.3    22.5
2006 01 05    04 38.91   -15 45.2    1.891    2.613   127.9    17.3    22.6
2006 01 15    04 30.04   -14 50.2    1.949    2.584   119.9    19.3    22.7
2006 01 25    04 24.19   -13 33.1    2.021    2.553   111.6    21.0    22.8

Timothy B. Spahr             (C) Copyright 2005 MPC           M.P.E.C. 2005-X49

Read MPEC 2005-X48 Read MPEC 2005-X50


Our Web policy. Index to the CBAT/MPC/ICQ pages.


Valid HTML 4.01!